Tracking 30115 objects as of 9-Feb-2025
HD Live streaming from Space Station
objects crossing your sky now

KINEIS-3C

Track KINEIS-3C now!
10-day predictions


NORAD ID: 61220
Int'l Code: 2024-171A
Perigee: 660.6 km
Apogee: 660.9 km
Inclination: 98.0 °
Period: 97.8 minutes
Semi major axis: 7031 km
RCS: Unknown
Launch date: September 20, 2024
Source: France (FR)
Launch site: Rocket Lab Launch Complex (RLLC)
Your satellite tracking list
Your tracking list is empty




NASA's NSSDC Master Catalog

Two Line Element Set (TLE):
1 61220U 24172A   25040.21823176  .00004036  00000-0  64550-3 0  9994
2 61220  98.0138 131.1714 0000212 254.2599 105.8585 14.72353694 20537
Source of the keplerian elements: AFSPC